Location: アルンシュタイン
(50.0000°N, 10.0000°E)
Time: 06:52:52
(UTC+01:00)

Envisat - Pass Details

Date: 31 October 2021
Orbit: 764 x 766 km, 98.2° (Epoch: 04 December)

Event Time Altitude Azimuth Distance (km) Brightness Sun altitude
Rises 05:55:19 0° 12° (NNE) 3,246 6.3 -12.1°
Reaches altitude 10° 05:57:38 10° 10° (N) 2,315 5.5 -11.8°
Maximum altitude 06:02:41 67° 289° (WNW) 832 3.0 -11.0°
Drops below altitude 10° 06:07:43 10° 207° (SSW) 2,297 5.3 -10.2°
Sets 06:10:01 0° 205° (SSW) 3,218 6.1 -9.8°
